User: anonymous
Location: Mentone
(34.5413°N, 85.5351°W)
Time: 01:46:04
(UTC-05:00)
Language:

ADEOS Rocket - Orbit

View from above orbital plane
View from above orbital plane
View from above satellite
View from above satellite

Ground track
Ground track

The orbit data is extracted from the following two-line orbital elements,

1 24279U 96046C   14243.23142912 -.00000047  00000-0 -14066-4 0  7089
2 24279 098.7411 301.4878 0300141 013.8215 016.9561 13.46989038886793
Epoch (UTC): 31 August 2014 05:33:15
Eccentricity: 0.0300141
inclination: 98.7411°
perigee height: 859 km
apogee height: 1307 km
right ascension of ascending node: 301.4878°
argument of perigee: 13.8215°
revolutions per day: 13.46989038
mean anomaly at epoch: 16.9561°
orbit number at epoch: 88679

The dashed part of the orbit path shows where the satellite is in the earth's shadow,  

DLR